Date String (YYYY-MM-DD hh:mm:ss) UTC,Instrument flags,absolute air pressure of the measurement (hPa),sample flow rate (lpm),inlet stack bypass flow (lpm),air temperature of the measurement (°C),ambient temperature measured by the external sensor (°C),aerosol sample conditioner tube jacket temperature (°C),OPC LED temperature (°C),internal box temperature (°C),relative humidity of the measurement (%),span deviation,mass concentration of particles derived from Lorenz-Mie calculation of OPC scattering (μg/m³),mass concentration of particles derived from Lorenz-Mie calculation of OPC scattering (μg/m³),mass concentration of particles derived from Lorenz-Mie calculation of OPC scattering (μg/m³)
DateTimeUTC,F1_M11,P_M11,Q1_M11,Q2_M11,T1_M11,T2_M11,T3_M11,T4_M11,T5_M11,U1_M11,ZSPAN_M11,X0_M11,X2_M11,X1_M11
2024-06-18 03:00:00,SystemResetWarning,0813.9,5.00,000.00,029.2,028.5,000.0,037.3,031.1,011.3,0000.0,0026.50,0003.74,0002.49
2024-06-18 03:01:00,SystemResetWarning,0814.0,4.99,000.00,029.3,028.7,000.0,037.4,031.2,011.7,0000.0,0024.84,0003.57,0002.32
2024-06-18 03:02:00,SystemResetWarning,0814.0,4.99,000.00,029.4,028.9,000.0,037.4,031.3,011.7,0000.0,0023.10,0003.49,0002.22
2024-06-18 03:03:00,SystemResetWarning,0814.1,5.00,000.00,029.5,029.0,000.0,037.5,031.4,011.7,0000.0,0022.31,0003.41,0002.16
2024-06-18 03:04:00,SystemResetWarning,0814.0,5.00,000.00,029.6,029.2,000.0,037.5,031.5,011.8,0000.0,0021.92,0003.35,0002.12
2024-06-18 03:05:00,SystemResetWarning,0814.0,5.00,000.00,029.6,029.0,000.0,037.6,031.3,012.0,0000.0,0017.22,0003.30,0002.10
2024-06-18 03:06:00,SystemResetWarning,0813.9,5.00,000.00,029.4,026.8,000.0,037.6,030.3,011.5,0000.0,0016.19,0003.22,0002.07
2024-06-18 03:07:00,SystemResetWarning,0813.9,5.01,000.00,028.9,025.3,000.0,037.6,029.6,012.1,0000.0,0016.03,0003.21,0002.07
2024-06-18 03:08:00,SystemResetWarning,0813.9,5.00,000.00,028.8,025.7,000.0,037.6,029.6,012.3,0000.0,0014.30,0003.22,0002.08
2024-06-18 03:09:00,SystemResetWarning,0814.0,5.00,000.00,028.7,026.2,000.0,037.4,029.9,012.0,0000.0,0013.34,0003.25,0002.07
2024-06-18 03:10:00,SystemResetWarning,0814.0,5.00,000.00,028.7,026.7,000.0,037.4,030.1,012.1,0000.0,0013.43,0003.32,0002.07
2024-06-18 03:11:00,SystemResetWarning,0814.0,5.00,000.00,028.8,027.1,000.0,037.3,030.4,011.6,0000.0,0012.95,0003.35,0002.09
2024-06-18 03:12:00,SystemResetWarning,0814.1,4.99,000.00,028.9,027.5,000.0,037.3,030.6,011.4,0000.0,0013.19,0003.41,0002.09
2024-06-18 03:13:00,SystemResetWarning,0814.1,5.01,000.00,029.0,027.8,000.0,037.3,030.7,011.5,0000.0,0012.84,0003.44,0002.08
2024-06-18 03:14:00,SystemResetWarning,0814.2,5.00,000.00,029.0,028.1,000.0,037.3,030.8,011.6,0000.0,0012.11,0003.47,0002.07
2024-06-18 03:15:00,SystemResetWarning,0814.2,5.00,000.00,029.1,028.4,000.0,037.3,030.9,011.6,0000.0,0011.07,0003.47,0002.06
2024-06-18 03:16:00,SystemResetWarning,0814.2,5.00,000.00,029.2,028.6,000.0,037.4,031.1,011.3,0000.0,0011.83,0003.45,0002.05
2024-06-18 03:17:00,SystemResetWarning,0814.2,5.00,000.00,029.3,028.7,000.0,037.4,031.2,011.2,0000.0,0012.28,0003.47,0002.04
2024-06-18 03:18:00,SystemResetWarning,0814.2,5.00,000.00,029.4,028.9,000.0,037.4,031.3,011.0,0000.0,0011.95,0003.45,0002.03
2024-06-18 03:19:00,SystemResetWarning,0814.1,4.99,000.00,029.5,029.0,000.0,037.5,031.4,010.7,0000.0,0012.36,0003.42,0001.99
2024-06-18 03:20:00,SystemResetWarning,0814.2,5.00,000.00,029.5,029.2,000.0,037.5,031.4,010.4,0000.0,0013.17,0003.37,0001.97
2024-06-18 03:21:00,SystemResetWarning,0814.2,5.00,000.00,029.6,029.3,000.0,037.6,031.5,010.3,0000.0,0014.63,0003.30,0001.96
2024-06-18 03:22:00,SystemResetWarning,0814.1,4.99,000.00,029.6,028.1,000.0,037.7,030.9,010.1,0000.0,0015.96,0003.28,0001.93
2024-06-18 03:23:00,SystemResetWarning,0814.0,5.00,000.00,029.1,025.6,000.0,037.7,029.7,010.3,0000.0,0016.87,0003.23,0001.92
2024-06-18 03:24:00,SystemResetWarning,0814.0,5.01,000.00,028.8,025.3,000.0,037.7,029.5,010.5,0000.0,0017.34,0003.19,0001.92
2024-06-18 03:25:00,SystemResetWarning,0814.0,5.01,000.00,028.7,025.9,000.0,037.5,029.7,010.5,0000.0,0017.91,0003.20,0001.91
2024-06-18 03:26:00,SystemResetWarning,0814.1,5.00,000.00,028.7,026.4,000.0,037.4,030.0,010.4,0000.0,0018.93,0003.22,0001.90
2024-06-18 03:27:00,SystemResetWarning,0814.1,5.00,000.00,028.8,026.9,000.0,037.4,030.3,010.4,0000.0,0018.29,0003.26,0001.90
2024-06-18 03:28:00,SystemResetWarning,0814.2,4.99,000.00,028.8,027.3,000.0,037.3,030.5,010.5,0000.0,0018.78,0003.30,0001.90
2024-06-18 03:29:00,SystemResetWarning,0814.2,5.00,000.00,028.9,027.7,000.0,037.3,030.6,010.4,0000.0,0019.58,0003.31,0001.89
2024-06-18 03:30:00,SystemResetWarning,0814.1,5.00,000.00,029.0,028.0,000.0,037.3,030.8,010.2,0000.0,0019.12,0003.32,0001.89
2024-06-18 03:31:00,SystemResetWarning,0814.2,5.00,000.00,029.1,028.2,000.0,037.3,030.9,010.2,0000.0,0019.29,0003.35,0001.90
2024-06-18 03:32:00,SystemResetWarning,0814.1,5.00,000.00,029.1,028.4,000.0,037.3,031.0,010.0,0000.0,0017.69,0003.41,0001.89
2024-06-18 03:33:00,SystemResetWarning,0814.2,4.99,000.00,029.2,028.6,000.0,037.4,031.1,010.0,0000.0,0016.79,0003.43,0001.90
2024-06-18 03:34:00,SystemResetWarning,0814.2,5.00,000.00,029.3,028.8,000.0,037.4,031.2,010.0,0000.0,0018.03,0003.45,0001.92
2024-06-18 03:35:00,SystemResetWarning,0814.1,5.00,000.00,029.4,028.9,000.0,037.5,031.3,009.9,0000.0,0018.03,0003.48,0001.91
2024-06-18 03:36:00,SystemResetWarning,0814.2,5.00,000.00,029.5,029.0,000.0,037.5,031.4,009.9,0000.0,0018.00,0003.51,0001.92
2024-06-18 03:37:00,SystemResetWarning,0814.2,5.00,000.00,029.5,029.2,000.0,037.5,031.4,009.8,0000.0,0018.09,0003.50,0001.93
2024-06-18 03:38:00,SystemResetWarning,0814.1,5.00,000.00,029.6,029.3,000.0,037.6,031.5,009.8,0000.0,0018.19,0003.52,0001.93
2024-06-18 03:39:00,SystemResetWarning,0814.0,5.00,000.00,029.7,029.3,000.0,037.6,031.6,009.6,0000.0,0017.97,0003.47,0001.91
2024-06-18 03:40:00,SystemResetWarning,0814.1,5.00,000.00,029.7,029.3,000.0,037.7,031.6,009.6,0000.0,0017.57,0003.45,0001.91
2024-06-18 03:41:00,SystemResetWarning,0814.0,4.98,000.00,029.6,027.4,000.0,037.8,030.7,009.8,0000.0,0018.62,0003.46,0001.91
2024-06-18 03:42:00,SystemResetWarning,0813.9,5.02,000.00,029.3,026.5,000.0,037.8,030.2,010.0,0000.0,0018.19,0003.47,0001.91
2024-06-18 03:43:00,SystemResetWarning,0813.9,4.99,000.00,029.2,026.9,000.0,037.8,030.3,010.0,0000.0,0018.64,0003.41,0001.89
2024-06-18 03:44:00,SystemResetWarning,0814.0,4.99,000.00,029.2,027.2,000.0,037.7,030.6,010.0,0000.0,0019.13,0003.44,0001.89
2024-06-18 03:45:00,SystemResetWarning,0813.9,5.00,000.00,029.2,027.6,000.0,037.7,030.8,010.0,0000.0,0016.40,0003.41,0001.86
2024-06-18 03:46:00,SystemResetWarning,0813.9,5.00,000.00,029.3,027.9,000.0,037.6,030.9,009.9,0000.0,0015.72,0003.38,0001.85
2024-06-18 03:47:00,SystemResetWarning,0813.9,5.01,000.00,029.3,028.2,000.0,037.6,031.0,009.9,0000.0,0015.19,0003.37,0001.85
2024-06-18 03:48:00,SystemResetWarning,0813.9,5.01,000.00,029.4,028.5,000.0,037.6,031.2,009.9,0000.0,0013.67,0003.36,0001.84
2024-06-18 03:49:00,SystemResetWarning,0813.9,4.99,000.00,029.4,028.7,000.0,037.7,031.3,010.0,0000.0,0013.77,0003.32,0001.83
2024-06-18 03:50:00,SystemResetWarning,0813.7,4.99,000.00,029.5,028.8,000.0,037.7,031.3,009.8,0000.0,0015.59,0003.40,0001.84
2024-06-18 03:51:00,SystemResetWarning,0813.7,5.00,000.00,029.6,029.0,000.0,037.7,031.4,009.8,0000.0,0017.14,0003.48,0001.84
2024-06-18 03:52:00,SystemResetWarning,0813.8,5.01,000.00,029.6,029.1,000.0,037.8,031.5,009.7,0000.0,0018.56,0003.53,0001.85
2024-06-18 03:53:00,SystemResetWarning,0813.8,5.02,000.00,029.7,029.3,000.0,037.8,031.6,009.8,0000.0,0020.20,0003.57,0001.87
2024-06-18 03:54:00,SystemResetWarning,0813.8,5.00,000.00,029.7,029.4,000.0,037.8,031.6,009.7,0000.0,0020.42,0003.68,0001.90
2024-06-18 03:55:00,SystemResetWarning,0813.9,4.99,000.00,029.8,029.5,000.0,037.9,031.7,009.7,0000.0,0021.45,0003.67,0001.91
2024-06-18 03:56:00,SystemResetWarning,0813.9,4.99,000.00,029.9,029.6,000.0,037.9,031.7,009.7,0000.0,0021.46,0003.66,0001.92
2024-06-18 03:57:00,SystemResetWarning,0814.0,5.00,000.00,029.9,028.8,000.0,038.0,031.4,009.7,0000.0,0021.68,0003.71,0001.94
2024-06-18 03:58:00,SystemResetWarning,0813.9,5.00,000.00,029.5,026.0,000.0,038.0,030.1,009.8,0000.0,0022.01,0003.71,0001.96
2024-06-18 03:59:00,SystemResetWarning,0813.9,5.01,000.00,029.1,025.3,000.0,038.0,029.6,010.1,0000.0,0022.08,0003.70,0001.97
